Telluride, CO

5:48 AM MST on February 08, 2016 (GMT -0700)
Telluride Regional

Weather History for KTEX - October, 2014

Change the Weather History Date:

Friday, October 10, 2014

  Actual Average (KMTJ) Record (KMTJ)
Temperature  
Mean Temperature - 52 °F  
Max Temperature - 67 °F - ()
Min Temperature - 37 °F - ()
Degree Days  
Heating Degree Days 13  
Month to date heating degree days 108  
Since 1 July heating degree days 235  
Cooling Degree Days 0  
Month to date cooling degree days 0  
Year to date cooling degree days 643  
Moisture  
Dew Point -    
Average Humidity    
Maximum Humidity    
Minimum Humidity    
Precipitation  
Precipitation 0.01 in 0.05 in - ()
Month to date precipitation 0.52  
Year to date precipitation 9.17  
Sea Level Pressure  
Sea Level Pressure 30.25 in    
Wind  
Wind Speed 3 mph (WSW)    
Max Wind Speed 15 mph    
Max Gust Speed 22 mph    
Visibility 7 miles    
Events Fog    
T = Trace of Precipitation, MM = Missing Value Source: NWS Daily Summary

Daily Weather History Graph

Daily Weather History Graph

Search for Another Location

Airport or City:

Trip Planner

Search our weather history database for the weather conditions in past years. The results will help you decide how hot, cold, wet, or windy it might be!

Date:

Astronomy

Oct. 10, 2014 Rise Set
Actual Time 7:15 AM MDT 6:41 PM MDT
Civil Twilight 6:49 AM MDT 7:07 PM MDT
Nautical Twilight 6:18 AM MDT 7:37 PM MDT
Astronomical Twilight 5:48 AM MDT 8:08 PM MDT
Moon 8:26 PM MDT (10/10) 9:37 AM MDT (10/10)
Length of Visible Light 12h 18m
Length of Day
11h 25m
Waning Gibbous, 93% of the Moon is Illuminated
Oct 10
Waning Gibbous
Oct 15
Last Quarter
Oct 23
New
Oct 30
First Quarter
Nov 6
Full

Hourly Weather History & Observations

Time (MDT) Temp. Dew Point Humidity Pressure Visibility Wind Dir Wind Speed Gust Speed Precip Events Conditions
12:15 AM - - N/A% 30.18 in 0.5 mi Calm Calm - N/A Fog Fog
12:35 AM - - N/A% 30.19 in 0.2 mi WSW 3.5 mph - N/A Fog Fog
12:55 AM - - N/A% 30.19 in 0.5 mi Calm Calm - N/A Fog Fog
1:15 AM - - N/A% 30.19 in 0.2 mi Calm Calm - N/A Fog Fog
1:35 AM - - N/A% 30.19 in 0.5 mi Calm Calm - N/A Fog Fog
1:55 AM - - N/A% 30.19 in 0.2 mi Calm Calm - N/A Fog Fog
2:15 AM - - N/A% 30.19 in 0.2 mi Calm Calm - 0.01 in Fog Fog
2:35 AM - - N/A% 30.20 in 0.5 mi Calm Calm - 0.01 in Fog Fog
2:55 AM - - N/A% 30.20 in 0.2 mi Calm Calm - 0.01 in Fog Fog
3:15 AM - - N/A% 30.19 in 0.2 mi Calm Calm - N/A Fog Fog
3:35 AM - - N/A% 30.19 in 0.5 mi Calm Calm - N/A Fog Fog
3:55 AM - - N/A% 30.19 in 3.0 mi Calm Calm - N/A   Overcast
4:15 AM - - N/A% 30.19 in 0.8 mi Calm Calm - N/A   Overcast
4:35 AM - - N/A% 30.19 in 0.8 mi Calm Calm - N/A   Overcast
4:55 AM - - N/A% 30.20 in 10.0 mi Calm Calm - N/A   Overcast
5:15 AM - - N/A% 30.20 in 10.0 mi Calm Calm - N/A   Overcast
5:35 AM - - N/A% 30.20 in 7.0 mi Calm Calm - N/A   Overcast
5:55 AM - - N/A% 30.20 in 0.2 mi West 3.5 mph - N/A Fog Fog
6:15 AM - - N/A% 30.21 in 0.2 mi West 4.6 mph - N/A Fog Fog
6:35 AM - - N/A% 30.22 in 0.2 mi Calm Calm - N/A Fog Fog
6:55 AM - - N/A% 30.22 in 1.8 mi West 3.5 mph - N/A   Overcast
7:15 AM - - N/A% 30.23 in 10.0 mi Calm Calm - N/A   Overcast
7:35 AM - - N/A% 30.24 in 10.0 mi Calm Calm - N/A   Overcast
7:55 AM - - N/A% 30.24 in 4.0 mi Calm Calm - N/A   Overcast
8:15 AM - - N/A% 30.25 in 10.0 mi Calm Calm - N/A   Overcast
8:35 AM - - N/A% 30.26 in 7.0 mi Calm Calm - N/A   Overcast
8:55 AM - - N/A% 30.26 in 3.0 mi Calm Calm - N/A   Drizzle
9:15 AM - - N/A% 30.26 in 10.0 mi Calm Calm - N/A   Light Drizzle
9:35 AM - - N/A% 30.26 in 10.0 mi Calm Calm - N/A   Overcast
9:55 AM - - N/A% 30.26 in 10.0 mi Calm Calm - N/A   Overcast
10:15 AM - - N/A% 30.26 in 10.0 mi Calm Calm - N/A   Mostly Cloudy
10:35 AM - - N/A% 30.26 in 10.0 mi Calm Calm - N/A   Overcast
10:55 AM - - N/A% 30.26 in 10.0 mi Calm Calm - N/A   Overcast
11:15 AM - - N/A% 30.26 in 10.0 mi West 3.5 mph - N/A   Overcast
11:35 AM - - N/A% 30.26 in 10.0 mi West 11.5 mph - N/A   Overcast
11:55 AM - - N/A% 30.26 in 10.0 mi West 10.4 mph - N/A   Overcast
12:15 PM - - N/A% 30.26 in 10.0 mi West 12.7 mph 18.4 mph N/A   Overcast
12:35 PM - - N/A% 30.26 in 10.0 mi West 12.7 mph - N/A   Overcast
12:55 PM - - N/A% 30.26 in 10.0 mi West 10.4 mph - N/A   Overcast
1:15 PM - - N/A% 30.26 in 10.0 mi West 15.0 mph - N/A   Overcast
1:35 PM - - N/A% 30.26 in 10.0 mi West 11.5 mph 17.3 mph N/A   Overcast
1:55 PM - - N/A% 30.25 in 10.0 mi West 12.7 mph 21.9 mph N/A   Overcast
2:15 PM - - N/A% 30.25 in 10.0 mi West 11.5 mph 16.1 mph N/A   Overcast
2:35 PM - - N/A% 30.25 in 10.0 mi West 12.7 mph 19.6 mph N/A   Overcast
2:55 PM - - N/A% 30.25 in 10.0 mi West 10.4 mph - N/A   Overcast
3:15 PM - - N/A% 30.25 in 10.0 mi West 13.8 mph - N/A   Overcast
3:35 PM - - N/A% 30.25 in 10.0 mi West 13.8 mph 20.7 mph N/A   Mostly Cloudy
3:55 PM - - N/A% 30.26 in 10.0 mi West 12.7 mph 20.7 mph N/A   Overcast
4:15 PM - - N/A% 30.26 in 10.0 mi West 10.4 mph 17.3 mph N/A   Overcast
4:35 PM - - N/A% 30.26 in 10.0 mi West 12.7 mph 17.3 mph N/A   Overcast
4:55 PM - - N/A% 30.26 in 10.0 mi West 9.2 mph - N/A   Overcast
5:15 PM - - N/A% 30.27 in 10.0 mi West 10.4 mph - N/A   Overcast
5:35 PM - - N/A% 30.28 in 10.0 mi West 9.2 mph - N/A   Overcast
5:55 PM - - N/A% 30.28 in 10.0 mi West 6.9 mph - N/A   Overcast
6:15 PM - - N/A% 30.28 in 10.0 mi West 5.8 mph - N/A   Overcast
6:35 PM - - N/A% 30.29 in 10.0 mi West 4.6 mph - N/A   Overcast
6:55 PM - - N/A% 30.29 in 10.0 mi WSW 3.5 mph - N/A   Overcast
7:15 PM - - N/A% 30.29 in 10.0 mi Calm Calm - N/A   Mostly Cloudy
7:35 PM - - N/A% 30.30 in 10.0 mi Calm Calm - N/A   Scattered Clouds
7:55 PM - - N/A% 30.30 in 10.0 mi Calm Calm - N/A   Scattered Clouds
8:15 PM - - N/A% 30.31 in 10.0 mi Calm Calm - N/A   Clear
8:35 PM - - N/A% 30.32 in 10.0 mi Calm Calm - N/A   Clear
8:55 PM - - N/A% 30.32 in 10.0 mi ESE 4.6 mph - N/A   Clear
9:15 PM - - N/A% 30.32 in 10.0 mi SE 4.6 mph - N/A   Scattered Clouds
9:55 PM - - N/A% 30.33 in 10.0 mi ESE 3.5 mph - N/A   Clear
10:15 PM - - N/A% 30.33 in 10.0 mi East 3.5 mph - N/A   Clear
10:35 PM - - N/A% 30.33 in 10.0 mi SE 3.5 mph - N/A   Clear
10:55 PM - - N/A% 30.33 in 10.0 mi ESE 4.6 mph - N/A   Clear
11:15 PM - - N/A% 30.33 in 10.0 mi ESE 4.6 mph - N/A   Clear
11:35 PM - - N/A% 30.33 in 10.0 mi ESE 4.6 mph - N/A   Clear
11:55 PM - - N/A% 30.33 in 10.0 mi ESE 5.8 mph - N/A   Clear